Regional Weather Roundup
Issued by NWS

Home | Current Version | Previous Version | Text Only | Print | Product List | Glossary Off
Versions: 1 2 3 4 5 6 7 8 9 10 11 12 13 14 15 16 17 18 19 20 21 22 23 24 25 26 27 28 29 30 31 32 33 34 35 36 37 38 39 40 41 42 43 44 45 46 47 48 49 50

000
ASUS43 KFSD 262302
RWRSD

WEATHER ROUNDUP FOR SOUTH DAKOTA
NATIONAL WEATHER SERVICE SIOUX FALLS SD
600 PM CDT SUN APR 26 2015

NOTE: "FAIR" INDICATES FEW OR NO CLOUDS BELOW 12,000 FEET WITH NO
SIGNIFICANT WEATHER AND/OR OBSTRUCTIONS TO VISIBILITY.


SDZ001>005-009-010-012>017-270000-
NORTHWEST AND NORTH CENTRAL SOUTH DAKOTA

CITY           SKY/WX    TMP DP  RH WIND       PRES   REMARKS
BUFFALO          N/A     48  47  96 NE14      30.00R
FAITH            N/A     58  40  51 E3        30.04S
MOBRIDGE       MOSUNNY   67  34  29 S10       30.03R
$$

SDZ012>016-024>037-041>051-057-063-072>074-270000-
SOUTHWEST AND SOUTH CENTRAL SOUTH DAKOTA

CITY           SKY/WX    TMP DP  RH WIND       PRES   REMARKS
RAPID CTY ARPT CLOUDY    51  45  79 CALM      30.03S
PIERRE         CLOUDY    62  37  39 E7        30.03S
CUSTER         CLOUDY    41  38  89 E9        30.03S
ELLSWORTH AFB  CLOUDY    52  46  82 E6        30.03
PHILIP         CLOUDY    61  39  44 E7G18     30.02S
PINE RIDGE     CLOUDY    52  40  63 SE9G17    30.02R
WINNER         FAIR      64  36  35 E10       30.02S
$$

SDZ004>011-016>023-039-040-270000-
NORTHEAST SOUTH DAKOTA

CITY           SKY/WX    TMP DP  RH WIND       PRES   REMARKS
ABERDEEN       SUNNY     68  34  28 E12       30.06S
WATERTOWN      SUNNY     63  30  28 E7        30.07S
BROOKINGS      SUNNY     63  30  29 E9G17     30.07S
SISSETON         N/A     65  26  23 SE9       30.08S
$$

SDZ017-020-022-023-036>040-048>070-270000-
SOUTHEAST SOUTH DAKOTA

CITY           SKY/WX    TMP DP  RH WIND       PRES   REMARKS
SIOUX FALLS    MOSUNNY   66  33  29 NE12      30.03S
HURON          SUNNY     67  31  26 SE10      30.04S
MITCHELL       SUNNY     66  36  32 E8        30.05S
YANKTON        SUNNY     66  30  26 E13       30.01S
$$

ABBREVIATIONS USED IN REMARKS
   TC - TEMPERATURE IN CELSIUS
  WCI - WIND CHILL INDEX
   HX - HEAT INDEX
  VSB - VISIBILITY




USA.gov is the U.S. government's official web portal to all federal, state and local government web resources and services.